Date,TemperatureHighF,TemperatureAvgF,TemperatureLowF,DewpointHighF,DewpointAvgF,DewpointLowF,HumidityHigh,HumidityAvg,HumidityLow,PressureMaxIn,PressureMinIn,WindSpeedMaxMPH,WindSpeedAvgMPH,GustSpeedMaxMPH,PrecipitationSumIn
2013-10-8,80.7,43.7,66.0,40.4,-21.5,-99.9,34,14,21,29.78,29.60,26,-410,33,0.00
2013-10-9,80.7,32.8,60.4,47.9,-35.8,-99.9,63,16,26,29.80,29.64,19,-550,25,0.00
2013-10-10,81.1,41.8,64.0,58.2,-11.8,-99.9,72,30,34,29.78,29.51,23,-413,28,0.00
2013-10-11,67.9,59.0,49.5,58.5,49.0,41.0,96,72,43,29.87,29.42,20,10,24,0.15
2013-10-12,64.3,48.7,42.6,43.8,26.0,-99.9,82,53,25,30.22,29.87,8,-63,13,0.00
2013-10-13,66.8,55.8,42.6,39.1,33.8,28.2,73,47,24,30.31,30.07,18,9,26,0.00
2013-10-14,58.0,52.6,49.8,53.3,44.9,36.3,98,77,45,30.07,29.80,16,10,20,0.07
2013-10-15,47.4,44.0,41.9,35.0,34.2,33.1,75,69,61,30.13,30.06,15,10,17,0.00
2013-10-16,55.9,43.6,31.9,35.2,31.7,24.6,93,66,30,30.13,29.93,6,3,12,0.00
2013-10-17,53.1,42.1,33.5,39.5,33.6,27.9,89,73,56,30.10,29.86,16,6,26,0.00
2013-10-18,49.8,39.0,30.9,34.2,28.5,21.3,89,69,35,30.15,30.01,8,2,11,0.00
2013-10-19,65.0,46.0,31.6,37.0,31.9,27.0,90,63,28,30.03,29.75,11,4,17,0.00
2013-10-20,62.4,49.5,38.2,39.9,34.8,32.0,80,59,34,30.01,29.68,14,5,21,0.00
2013-10-21,59.2,44.8,29.7,39.6,32.4,26.8,93,66,29,30.08,29.90,11,3,17,0.00
2013-10-22,59.2,48.1,36.2,41.8,37.9,32.1,87,69,40,30.09,29.89,19,7,25,0.00
2013-10-23,64.7,46.0,35.9,41.5,36.4,31.9,89,71,38,30.19,29.92,22,7,33,0.00
2013-10-24,44.2,40.7,36.6,37.9,30.3,24.1,87,67,53,30.41,30.18,11,4,16,0.00
2013-10-25,56.7,43.8,33.4,34.3,30.5,25.7,81,61,40,30.36,30.03,20,8,26,0.00
2013-10-26,54.4,43.5,33.4,34.8,26.3,20.9,78,54,27,30.16,30.00,10,2,12,0.00
2013-10-27,75.1,52.0,33.8,38.3,32.0,23.9,76,51,20,30.12,29.71,14,5,22,0.00
2013-10-28,52.0,44.1,37.6,40.2,35.5,32.6,94,72,53,30.08,29.83,20,12,26,0.03
2013-10-29,43.9,42.3,38.8,43.9,42.1,38.8,100,99,94,30.05,29.90,13,7,19,0.07
2013-10-30,49.5,40.2,35.6,45.9,38.9,34.3,100,96,75,29.99,29.74,8,3,12,0.00
2013-10-31,58.7,44.0,30.4,40.0,33.9,28.9,100,72,32,29.76,29.53,19,6,28,0.01